Time,TemperatureF,DewpointF,PressureIn,WindDirection,WindDirectionDegrees,WindSpeedMPH,WindSpeedGustMPH,Humidity,HourlyPrecipIn,Conditions,Clouds,dailyrainin,SolarRadiationWatts/m^2,SoftwareType,DateUTC
2013-03-18 00:12:00,36.0,10.0,-100.00,NNW,347,14.0,25.0,33,0.00,,,0.00,0.000000,,2013-03-18 07:12:00,
2013-03-18 00:22:00,36.0,10.0,-100.00,NNW,347,14.0,25.0,33,0.00,,,0.00,0.000000,,2013-03-18 07:22:00,
2013-03-18 01:12:00,37.0,15.0,-100.00,North,356,14.0,26.0,40,0.00,,,0.00,0.000000,,2013-03-18 08:12:00,
2013-03-18 01:22:00,37.0,15.0,-100.00,North,356,14.0,26.0,40,0.00,,,0.00,0.000000,,2013-03-18 08:22:00,
2013-03-18 01:32:00,37.0,15.0,-100.00,North,356,14.0,26.0,40,0.00,,,0.00,0.000000,,2013-03-18 08:32:00,
2013-03-18 02:22:00,39.0,3.0,-100.00,NNW,337,15.0,24.0,22,0.00,,,0.00,0.000000,,2013-03-18 09:22:00,
2013-03-18 03:23:00,39.0,1.0,-100.00,WSW,252,13.0,27.0,20,0.00,,,0.00,0.000000,,2013-03-18 10:23:00,
2013-03-18 04:12:00,39.0,5.0,-100.00,ENE,57,14.0,24.0,24,0.00,,,0.00,0.000000,,2013-03-18 11:12:00,
2013-03-18 04:22:00,39.0,5.0,-100.00,ENE,57,14.0,24.0,24,0.00,,,0.00,0.000000,,2013-03-18 11:22:00,
2013-03-18 05:12:00,39.0,14.0,-100.00,SW,218,13.0,24.0,35,0.00,,,0.00,0.000000,,2013-03-18 12:12:00,
2013-03-18 05:22:00,39.0,14.0,-100.00,SW,218,13.0,24.0,35,0.00,,,0.00,0.000000,,2013-03-18 12:22:00,
2013-03-18 06:22:00,39.0,11.0,-100.00,SE,129,12.0,21.0,31,0.00,,,0.00,0.000000,,2013-03-18 13:22:00,
2013-03-18 07:12:00,39.0,3.0,-100.00,NNW,342,12.0,19.0,22,0.00,,,0.00,0.000000,,2013-03-18 14:12:00,
2013-03-18 07:22:00,39.0,3.0,-100.00,NNW,342,12.0,19.0,22,0.00,,,0.00,0.000000,,2013-03-18 14:22:00,
2013-03-18 08:12:00,42.0,3.0,-100.00,North,359,11.0,19.0,19,0.00,,,0.00,18.000000,,2013-03-18 15:12:00,
2013-03-18 08:22:00,42.0,3.0,-100.00,North,359,11.0,19.0,19,0.00,,,0.00,18.000000,,2013-03-18 15:22:00,
2013-03-18 09:22:00,43.0,2.0,-100.00,West,272,9.0,18.0,18,0.00,,,0.00,56.000000,,2013-03-18 16:22:00,
2013-03-18 10:12:00,46.0,0.0,-100.00,North,3,10.0,18.0,14,0.00,,,0.00,430.000000,,2013-03-18 17:12:00,
2013-03-18 10:22:00,46.0,0.0,-100.00,North,3,10.0,18.0,14,0.00,,,0.00,430.000000,,2013-03-18 17:22:00,
2013-03-18 11:22:00,46.0,4.0,-100.00,WNW,288,7.0,18.0,17,0.00,,,0.00,913.000000,,2013-03-18 18:22:00,
2013-03-18 12:22:00,51.0,6.0,-100.00,NNE,22,5.0,14.0,16,0.00,,,0.00,1116.000000,,2013-03-18 19:22:00,
2013-03-18 13:22:00,52.0,6.0,-100.00,SSE,149,4.0,14.0,15,0.00,,,0.00,1241.000000,,2013-03-18 20:22:00,
2013-03-18 13:51:00,50.0,16.0,-100.00,NNW,347,5.0,12.0,26,0.00,,,0.00,1181.000000,,2013-03-18 20:51:00,
2013-03-18 14:11:00,50.0,16.0,-100.00,NNW,347,5.0,12.0,26,0.00,,,0.00,1181.000000,,2013-03-18 21:11:00,
2013-03-18 14:22:00,50.0,16.0,-100.00,NNW,347,5.0,12.0,26,0.00,,,0.00,1181.000000,,2013-03-18 21:22:00,
2013-03-18 14:32:00,50.0,16.0,-100.00,NNW,347,5.0,12.0,26,0.00,,,0.00,1181.000000,,2013-03-18 21:32:00,
2013-03-18 14:42:00,50.0,16.0,-100.00,NNW,347,5.0,12.0,26,0.00,,,0.00,1181.000000,,2013-03-18 21:42:00,
2013-03-18 14:51:00,48.0,17.0,-100.00,NNE,24,4.0,13.0,29,0.00,,,0.00,806.000000,,2013-03-18 21:51:00,
2013-03-18 15:13:00,48.0,17.0,-100.00,NNE,24,4.0,13.0,29,0.00,,,0.00,806.000000,,2013-03-18 22:13:00,
2013-03-18 15:22:00,48.0,17.0,-100.00,NNE,24,4.0,13.0,29,0.00,,,0.00,806.000000,,2013-03-18 22:22:00,
2013-03-18 15:33:00,48.0,17.0,-100.00,NNE,24,4.0,13.0,29,0.00,,,0.00,806.000000,,2013-03-18 22:33:00,
2013-03-18 15:42:00,48.0,17.0,-100.00,NNE,24,4.0,13.0,29,0.00,,,0.00,806.000000,,2013-03-18 22:42:00,
2013-03-18 16:12:00,47.0,10.0,-100.00,ENE,70,4.0,11.0,22,0.00,,,0.00,552.000000,,2013-03-18 23:12:00,
2013-03-18 16:22:00,47.0,10.0,-100.00,ENE,70,4.0,11.0,22,0.00,,,0.00,552.000000,,2013-03-18 23:22:00,
2013-03-18 17:12:00,44.0,12.0,-100.00,NNW,343,4.0,11.0,27,0.00,,,0.00,335.000000,,2013-03-19 00:12:00,
2013-03-18 17:22:00,44.0,12.0,-100.00,NNW,343,4.0,11.0,27,0.00,,,0.00,335.000000,,2013-03-19 00:22:00,
2013-03-18 18:12:00,40.0,6.0,-100.00,SSE,147,10.0,16.0,24,0.00,,,0.00,197.000000,,2013-03-19 01:12:00,
2013-03-18 18:22:00,40.0,6.0,-100.00,SSE,147,10.0,16.0,24,0.00,,,0.00,197.000000,,2013-03-19 01:22:00,
2013-03-18 19:12:00,39.0,3.0,-100.00,WSW,237,11.0,20.0,22,0.00,,,0.00,75.000000,,2013-03-19 02:12:00,
2013-03-18 19:22:00,39.0,3.0,-100.00,WSW,237,11.0,20.0,22,0.00,,,0.00,75.000000,,2013-03-19 02:22:00,
2013-03-18 20:12:00,40.0,2.0,-100.00,South,179,12.0,21.0,20,0.00,,,0.00,2.000000,,2013-03-19 03:12:00,
2013-03-18 20:22:00,40.0,2.0,-100.00,South,179,12.0,21.0,20,0.00,,,0.00,2.000000,,2013-03-19 03:22:00,
2013-03-18 20:51:00,38.0,16.0,-100.00,SSW,207,11.0,20.0,40,0.00,,,0.00,0.000000,,2013-03-19 03:51:00,
2013-03-18 21:13:00,38.0,16.0,-100.00,SSW,207,11.0,20.0,40,0.00,,,0.00,0.000000,,2013-03-19 04:13:00,
2013-03-18 21:23:00,38.0,16.0,-100.00,SSW,207,11.0,20.0,40,0.00,,,0.00,0.000000,,2013-03-19 04:23:00,
2013-03-18 21:33:00,38.0,16.0,-100.00,SSW,207,11.0,20.0,40,0.00,,,0.00,0.000000,,2013-03-19 04:33:00,
2013-03-18 21:42:00,38.0,16.0,-100.00,SSW,207,11.0,20.0,40,0.00,,,0.00,0.000000,,2013-03-19 04:42:00,
2013-03-18 21:51:00,36.0,23.0,-100.00,NNW,331,11.0,23.0,58,0.00,,,0.00,0.000000,,2013-03-19 04:51:00,
2013-03-18 22:22:00,36.0,23.0,-100.00,NNW,331,11.0,23.0,58,0.00,,,0.00,0.000000,,2013-03-19 05:22:00,
2013-03-18 22:32:00,36.0,23.0,-100.00,NNW,331,11.0,23.0,58,0.00,,,0.00,0.000000,,2013-03-19 05:32:00,
2013-03-18 22:42:00,36.0,23.0,-100.00,NNW,331,11.0,23.0,58,0.00,,,0.00,0.000000,,2013-03-19 05:42:00,
2013-03-18 22:51:00,37.0,15.0,-100.00,NNW,339,14.0,23.0,40,0.00,,,0.00,0.000000,,2013-03-19 05:51:00,
2013-03-18 23:12:00,37.0,15.0,-100.00,NNW,339,14.0,23.0,40,0.00,,,0.00,0.000000,,2013-03-19 06:12:00,
2013-03-18 23:22:00,37.0,15.0,-100.00,NNW,339,14.0,23.0,40,0.00,,,0.00,0.000000,,2013-03-19 06:22:00,
2013-03-18 23:32:00,37.0,15.0,-100.00,NNW,339,14.0,23.0,40,0.00,,,0.00,0.000000,,2013-03-19 06:32:00,
2013-03-18 23:42:00,37.0,15.0,-100.00,NNW,339,14.0,23.0,40,0.00,,,0.00,0.000000,,2013-03-19 06:42:00,
2013-03-18 23:51:00,35.0,15.0,-100.00,SSW,201,11.0,25.0,44,0.00,,,0.00,0.000000,,2013-03-19 06:51:00,